Location: Unspecified
(0.0000°N, 0.0000°E)
Time: 06:21:04
(UTC+02:00)

CZ-4B DEB - Visible Passes

Search period start: 30 May 2015 00:00
Search period end: 09 June 2015 00:00
Orbit: 480 x 495 km, 97.5° (Epoch: 29 May)

Date Brightness Start Highest point End Pass type
(mag) Time Alt. Az. Time Alt. Az. Time Alt. Az.
30 May 5.7 21:31:56 10° SSW 21:34:37 19° W 21:37:11 10° NW visible
31 May 4.1 21:07:42 10° S 21:11:13 46° W 21:14:41 10° NNW visible
01 Jun 3.0 20:44:13 10° SSE 20:47:49 64° ENE 20:51:23 10° N visible
02 Jun 4.2 20:21:23 10° SE 20:24:22 25° E 20:27:24 10° NNE visible
03 Jun 5.7 21:31:32 10° SSW 21:34:14 19° W 21:36:49 10° NW visible
04 Jun 4.0 21:07:13 10° S 21:10:44 47° W 21:14:12 10° NNW visible
05 Jun 3.1 20:43:39 10° SSE 20:47:14 62° E 20:50:47 10° N visible
06 Jun 4.3 20:20:45 10° SE 20:23:41 24° E 20:26:39 10° NNE visible
07 Jun 5.6 21:30:41 10° SSW 21:33:27 20° W 21:36:05 10° NW visible
08 Jun 3.9 21:06:20 10° S 21:09:50 50° W 21:13:18 10° NNW visible
